Time,TemperatureF,DewpointF,PressureIn,WindDirection,WindDirectionDegrees,WindSpeedMPH,WindSpeedGustMPH,Humidity,HourlyPrecipIn,Conditions,Clouds,dailyrainin,SoftwareType,DateUTC
2013-08-04 00:08:00,57.2,56.4,30.01,WNW,292,0.0,-999.0,97,-99.99,,,0.00,Acu-Link.com,2013-08-04 04:08:00,
2013-08-04 00:23:00,57.2,56.4,30.01,NW,315,0.0,-999.0,97,-99.99,,,0.00,Acu-Link.com,2013-08-04 04:23:00,
2013-08-04 00:38:00,57.2,56.9,30.01,SSW,202,0.0,-999.0,99,-99.99,,,0.00,Acu-Link.com,2013-08-04 04:38:00,
2013-08-04 00:53:00,55.4,54.8,30.01,NNW,337,0.0,-999.0,98,-99.99,,,0.00,Acu-Link.com,2013-08-04 04:53:00,
2013-08-04 01:08:00,55.4,54.8,30.02,NNW,337,0.0,-999.0,98,-99.99,,,0.00,Acu-Link.com,2013-08-04 05:08:00,
2013-08-04 01:23:00,55.4,54.6,30.01,SSW,202,0.0,-999.0,97,-99.99,,,0.00,Acu-Link.com,2013-08-04 05:23:00,
2013-08-04 01:38:00,55.4,55.1,30.00,ESE,112,0.0,-999.0,99,-99.99,,,0.00,Acu-Link.com,2013-08-04 05:38:00,
2013-08-04 01:53:00,55.4,55.1,30.01,SSW,202,0.0,-999.0,99,-99.99,,,0.00,Acu-Link.com,2013-08-04 05:53:00,
2013-08-04 02:08:00,57.2,56.9,30.01,West,270,4.0,-999.0,99,-99.99,,,0.01,Acu-Link.com,2013-08-04 06:08:00,
2013-08-04 02:23:00,59.0,58.7,30.03,NE,45,2.7,-999.0,99,-99.99,,,0.13,Acu-Link.com,2013-08-04 06:23:00,
2013-08-04 02:38:00,59.0,58.7,30.03,NW,315,0.0,-999.0,99,-99.99,,,0.15,Acu-Link.com,2013-08-04 06:38:00,
2013-08-04 02:53:00,59.0,58.7,30.04,West,270,0.0,-999.0,99,-99.99,,,0.41,Acu-Link.com,2013-08-04 06:53:00,
2013-08-04 03:08:00,59.0,58.7,30.03,East,90,0.0,-999.0,99,-99.99,,,0.59,Acu-Link.com,2013-08-04 07:08:00,
2013-08-04 03:23:00,59.0,58.7,30.04,SW,225,0.0,-999.0,99,-99.99,,,0.59,Acu-Link.com,2013-08-04 07:23:00,
2013-08-04 03:38:00,59.0,58.7,30.04,ENE,67,0.0,-999.0,99,-99.99,,,0.60,Acu-Link.com,2013-08-04 07:38:00,
2013-08-04 03:53:00,59.0,58.7,30.05,South,180,0.0,-999.0,99,-99.99,,,0.60,Acu-Link.com,2013-08-04 07:53:00,
2013-08-04 04:08:00,60.8,60.5,30.05,South,180,0.0,-999.0,99,-99.99,,,0.60,Acu-Link.com,2013-08-04 08:08:00,
2013-08-04 04:24:00,60.8,60.5,30.05,South,180,0.0,-999.0,99,-99.99,,,0.60,Acu-Link.com,2013-08-04 08:24:00,
2013-08-04 04:39:00,60.8,60.5,30.05,NE,45,0.0,-999.0,99,-99.99,,,0.60,Acu-Link.com,2013-08-04 08:39:00,
2013-08-04 04:54:00,60.8,60.5,30.05,West,270,0.0,-999.0,99,-99.99,,,0.60,Acu-Link.com,2013-08-04 08:54:00,
2013-08-04 05:09:00,59.0,58.7,30.06,WNW,292,0.0,-999.0,99,-99.99,,,0.60,Acu-Link.com,2013-08-04 09:09:00,
2013-08-04 05:24:00,59.0,58.7,30.06,ENE,67,0.0,-999.0,99,-99.99,,,0.60,Acu-Link.com,2013-08-04 09:24:00,
2013-08-04 05:39:00,57.2,56.9,30.07,ENE,67,0.0,-999.0,99,-99.99,,,1.32,Acu-Link.com,2013-08-04 09:39:00,
2013-08-04 05:54:00,57.2,56.9,30.07,South,180,0.0,-999.0,99,-99.99,,,1.32,Acu-Link.com,2013-08-04 09:54:00,
2013-08-04 06:09:00,55.4,55.1,30.07,South,180,0.0,-999.0,99,-99.99,,,1.32,Acu-Link.com,2013-08-04 10:09:00,
2013-08-04 06:24:00,55.4,55.1,30.07,South,180,0.0,-999.0,99,-99.99,,,1.32,Acu-Link.com,2013-08-04 10:24:00,
2013-08-04 06:39:00,55.4,55.1,30.06,South,180,0.0,-999.0,99,-99.99,,,1.32,Acu-Link.com,2013-08-04 10:39:00,
2013-08-04 06:54:00,55.4,55.1,30.07,WSW,247,0.0,-999.0,99,-99.99,,,1.32,Acu-Link.com,2013-08-04 10:54:00,
2013-08-04 07:10:00,55.4,55.1,30.07,NE,45,0.0,-999.0,99,-99.99,,,1.32,Acu-Link.com,2013-08-04 11:10:00,
2013-08-04 07:25:00,55.4,55.1,30.07,NE,45,0.0,-999.0,99,-99.99,,,1.33,Acu-Link.com,2013-08-04 11:25:00,
2013-08-04 07:40:00,55.4,55.1,30.08,SW,225,0.0,-999.0,99,-99.99,,,1.33,Acu-Link.com,2013-08-04 11:40:00,
2013-08-04 07:54:00,59.0,58.7,30.09,ESE,112,0.0,-999.0,99,-99.99,,,1.33,Acu-Link.com,2013-08-04 11:54:00,
2013-08-04 08:09:00,59.0,58.7,30.09,South,180,0.0,-999.0,99,-99.99,,,1.33,Acu-Link.com,2013-08-04 12:09:00,
2013-08-04 08:25:00,60.8,60.5,30.09,South,180,0.0,-999.0,99,-99.99,,,1.33,Acu-Link.com,2013-08-04 12:25:00,
2013-08-04 08:40:00,60.8,60.5,30.10,East,90,1.6,-999.0,99,-99.99,,,1.33,Acu-Link.com,2013-08-04 12:40:00,
2013-08-04 08:55:00,60.8,59.4,30.09,NNW,337,2.0,-999.0,95,-99.99,,,1.33,Acu-Link.com,2013-08-04 12:55:00,
2013-08-04 09:11:00,62.6,60.2,30.10,SSW,202,0.0,-999.0,92,-99.99,,,1.33,Acu-Link.com,2013-08-04 13:11:00,
2013-08-04 09:26:00,62.6,59.3,30.11,NW,315,0.0,-999.0,89,-99.99,,,1.33,Acu-Link.com,2013-08-04 13:26:00,
2013-08-04 10:12:00,66.2,57.7,30.10,West,270,3.1,-999.0,74,-99.99,,,1.33,Acu-Link.com,2013-08-04 14:12:00,
2013-08-04 10:27:00,68.0,59.8,30.11,NNW,337,4.7,-999.0,75,-99.99,,,1.33,Acu-Link.com,2013-08-04 14:27:00,
2013-08-04 10:42:00,68.0,58.6,30.11,NNE,22,3.1,-999.0,72,-99.99,,,1.33,Acu-Link.com,2013-08-04 14:42:00,
2013-08-04 10:57:00,68.0,58.6,30.11,NW,315,2.0,-999.0,72,-99.99,,,1.33,Acu-Link.com,2013-08-04 14:57:00,
2013-08-04 11:13:00,68.0,58.6,30.12,NW,315,4.0,-999.0,72,-99.99,,,1.33,Acu-Link.com,2013-08-04 15:13:00,
2013-08-04 11:28:00,68.0,57.8,30.13,NNW,337,2.7,-999.0,70,-99.99,,,1.33,Acu-Link.com,2013-08-04 15:28:00,
2013-08-04 11:43:00,68.0,58.6,30.13,North,0,3.6,-999.0,72,-99.99,,,1.33,Acu-Link.com,2013-08-04 15:43:00,
2013-08-04 11:58:00,68.0,57.8,30.13,WSW,247,2.7,-999.0,70,-99.99,,,1.33,Acu-Link.com,2013-08-04 15:58:00,
2013-08-04 12:13:00,69.8,58.8,30.13,NE,45,2.7,-999.0,68,-99.99,,,1.33,Acu-Link.com,2013-08-04 16:13:00,
2013-08-04 12:28:00,66.2,56.5,30.14,SW,225,2.7,-999.0,71,-99.99,,,1.33,Acu-Link.com,2013-08-04 16:28:00,
2013-08-04 12:43:00,68.0,57.8,30.14,NNE,22,1.6,-999.0,70,-99.99,,,1.33,Acu-Link.com,2013-08-04 16:43:00,
2013-08-04 12:58:00,68.0,58.2,30.13,NNW,337,3.1,-999.0,71,-99.99,,,1.33,Acu-Link.com,2013-08-04 16:58:00,
2013-08-04 13:13:00,69.8,60.0,30.13,West,270,3.6,-999.0,71,-99.99,,,1.33,Acu-Link.com,2013-08-04 17:13:00,
2013-08-04 13:29:00,69.8,59.2,30.12,NNW,337,3.1,-999.0,69,-99.99,,,1.33,Acu-Link.com,2013-08-04 17:29:00,
2013-08-04 13:44:00,69.8,57.9,30.13,WNW,292,4.0,-999.0,66,-99.99,,,1.33,Acu-Link.com,2013-08-04 17:44:00,
2013-08-04 13:59:00,71.6,60.0,30.13,North,0,3.6,-999.0,67,-99.99,,,1.33,Acu-Link.com,2013-08-04 17:59:00,
2013-08-04 14:14:00,69.8,57.1,30.12,West,270,3.1,-999.0,64,-99.99,,,1.33,Acu-Link.com,2013-08-04 18:14:00,
2013-08-04 14:30:00,69.8,57.1,30.12,North,0,5.1,-999.0,64,-99.99,,,1.33,Acu-Link.com,2013-08-04 18:30:00,
2013-08-04 14:45:00,71.6,57.9,30.13,WSW,247,3.1,-999.0,62,-99.99,,,1.33,Acu-Link.com,2013-08-04 18:45:00,
2013-08-04 15:00:00,71.6,57.9,30.12,SW,225,2.7,-999.0,62,-99.99,,,1.33,Acu-Link.com,2013-08-04 19:00:00,
2013-08-04 15:15:00,71.6,57.9,30.12,West,270,2.0,-999.0,62,-99.99,,,1.33,Acu-Link.com,2013-08-04 19:15:00,
2013-08-04 15:30:00,71.6,57.9,30.12,NNW,337,2.7,-999.0,62,-99.99,,,1.33,Acu-Link.com,2013-08-04 19:30:00,
2013-08-04 15:45:00,71.6,56.5,30.11,West,270,1.1,-999.0,59,-99.99,,,1.33,Acu-Link.com,2013-08-04 19:45:00,
2013-08-04 16:00:00,71.6,56.0,30.11,East,90,2.7,-999.0,58,-99.99,,,1.33,Acu-Link.com,2013-08-04 20:00:00,
2013-08-04 16:16:00,71.6,57.0,30.11,NW,315,0.0,-999.0,60,-99.99,,,1.33,Acu-Link.com,2013-08-04 20:16:00,
2013-08-04 16:31:00,71.6,57.4,30.11,WNW,292,4.7,-999.0,61,-99.99,,,1.33,Acu-Link.com,2013-08-04 20:31:00,
2013-08-04 16:46:00,71.6,56.5,30.11,West,270,1.6,-999.0,59,-99.99,,,1.33,Acu-Link.com,2013-08-04 20:46:00,
2013-08-04 17:32:00,71.6,58.8,30.11,NNE,22,1.6,-999.0,64,-99.99,,,1.33,Acu-Link.com,2013-08-04 21:32:00,
2013-08-04 17:47:00,71.6,57.0,30.11,WNW,292,2.0,-999.0,60,-99.99,,,1.33,Acu-Link.com,2013-08-04 21:47:00,
2013-08-04 18:02:00,71.6,56.5,30.11,WNW,292,2.0,-999.0,59,-99.99,,,1.33,Acu-Link.com,2013-08-04 22:02:00,
2013-08-04 18:17:00,71.6,57.4,30.11,SSE,157,2.0,-999.0,61,-99.99,,,1.33,Acu-Link.com,2013-08-04 22:17:00,
2013-08-04 18:33:00,69.8,56.6,30.11,West,270,2.7,-999.0,63,-99.99,,,1.33,Acu-Link.com,2013-08-04 22:33:00,
2013-08-04 18:48:00,69.8,56.6,30.11,West,270,3.1,-999.0,63,-99.99,,,1.33,Acu-Link.com,2013-08-04 22:48:00,
2013-08-04 19:03:00,69.8,56.6,30.11,WNW,292,1.1,-999.0,63,-99.99,,,1.33,Acu-Link.com,2013-08-04 23:03:00,
2013-08-04 19:18:00,69.8,57.5,30.10,WSW,247,0.0,-999.0,65,-99.99,,,1.33,Acu-Link.com,2013-08-04 23:18:00,
2013-08-04 19:33:00,68.0,57.0,30.11,NE,45,0.0,-999.0,68,-99.99,,,1.33,Acu-Link.com,2013-08-04 23:33:00,
2013-08-04 19:49:00,68.0,59.0,30.11,ESE,112,0.0,-999.0,73,-99.99,,,1.33,Acu-Link.com,2013-08-04 23:49:00,
2013-08-04 20:04:00,66.2,58.0,30.11,SW,225,0.0,-999.0,75,-99.99,,,1.33,Acu-Link.com,2013-08-05 00:04:00,
2013-08-04 20:19:00,64.4,55.9,30.11,NNE,22,0.0,-999.0,74,-99.99,,,1.33,Acu-Link.com,2013-08-05 00:19:00,
2013-08-04 20:33:00,64.4,56.3,30.11,NNW,337,0.0,-999.0,75,-99.99,,,1.33,Acu-Link.com,2013-08-05 00:33:00,
2013-08-04 20:49:00,62.6,56.7,30.11,SSE,157,0.0,-999.0,81,-99.99,,,1.33,Acu-Link.com,2013-08-05 00:49:00,
2013-08-04 21:04:00,62.6,58.0,30.12,East,90,0.0,-999.0,85,-99.99,,,1.33,Acu-Link.com,2013-08-05 01:04:00,
2013-08-04 21:19:00,60.8,56.9,30.12,North,0,0.0,-999.0,87,-99.99,,,1.33,Acu-Link.com,2013-08-05 01:19:00,
2013-08-04 21:34:00,60.8,56.6,30.12,NE,45,0.0,-999.0,86,-99.99,,,1.33,Acu-Link.com,2013-08-05 01:34:00,
2013-08-04 21:48:00,60.8,57.2,30.12,WSW,247,0.0,-999.0,88,-99.99,,,1.33,Acu-Link.com,2013-08-05 01:48:00,
2013-08-04 22:04:00,60.8,57.2,30.12,West,270,0.0,-999.0,88,-99.99,,,1.33,Acu-Link.com,2013-08-05 02:04:00,
2013-08-04 22:19:00,60.8,58.2,30.12,NE,45,0.0,-999.0,91,-99.99,,,1.33,Acu-Link.com,2013-08-05 02:19:00,
2013-08-04 22:34:00,60.8,57.5,30.12,NE,45,0.0,-999.0,89,-99.99,,,1.33,Acu-Link.com,2013-08-05 02:34:00,
2013-08-04 22:49:00,60.8,57.5,30.12,East,90,0.0,-999.0,89,-99.99,,,1.33,Acu-Link.com,2013-08-05 02:49:00,
2013-08-04 23:04:00,60.8,57.2,30.12,NE,45,0.0,-999.0,88,-99.99,,,1.33,Acu-Link.com,2013-08-05 03:04:00,
2013-08-04 23:19:00,60.8,56.9,30.12,NNE,22,0.0,-999.0,87,-99.99,,,1.33,Acu-Link.com,2013-08-05 03:19:00,
2013-08-04 23:34:00,60.8,56.6,30.12,NE,45,0.0,-999.0,86,-99.99,,,1.33,Acu-Link.com,2013-08-05 03:34:00,
2013-08-04 23:49:00,59.0,53.8,30.12,NE,45,0.0,-999.0,83,-99.99,,,1.33,Acu-Link.com,2013-08-05 03:49:00,